User: anonymous   Login
Location: Fort Wayne
(41.1310°N, 85.1290°W)
Time: 21:54:49
(UTC-04:00)
Language:

IDEFIX/ARIANE 42P - Orbit

View from above orbital plane
View from above orbital plane
View from above satellite
View from above satellite

Ground track
Ground track

The orbit data is extracted from the following two-line orbital elements,

1 27422U 02021B   16269.04302156 -.00000018  00000-0  90708-5 0  9996
2 27422  98.2298 278.0455 0011280 306.4450  53.5692 14.29249211748804
Epoch (UTC): 25 September 2016 01:01:57
Eccentricity: 0.0011280
inclination: 98.2298°
perigee height: 786 km
apogee height: 802 km
right ascension of ascending node: 278.0455°
argument of perigee: 306.4450°
revolutions per day: 14.29249211
mean anomaly at epoch: 53.5692°
orbit number at epoch: 74880

The dashed part of the orbit path shows where the satellite is in the earth's shadow,  

DLR